This demonstration page uses our WeatherBlox Daily Observations layout. Learn more.

Left ArrowRight Arrow

Hourly Observations for November 19, 2021

Temp ( °F °C ) Dew Point ( °F °C ) Humidity (%) Winds ( mph kmh ) Pressure ( in mb ) Visibility ( mi km ) Precip ( " mm )
12:53 am 00:53 Clear 42 5.6 33 0.6 71 71 N 7 11 30.32 1027 10 16 0.00 0.00
1:53 am 01:53 Clear 41 5 30 -1.1 65 65 N 7 11 30.32 1027 10 16 0.00 0.00
2:53 am 02:53 Clear 41 5 29 -1.7 62 62 NNW 9 15 30.32 1027 10 16 0.00 0.00
3:53 am 03:53 Clear 39 3.9 27 -2.8 62 62 NNW 7 11 30.33 1027 10 16 0.00 0.00
4:53 am 04:53 Clear 38 3.3 26 -3.3 62 62 NW 5 7 30.34 1027 10 16 0.00 0.00
5:53 am 05:53 Clear 37 2.8 25 -3.9 62 62 NNW 7 11 30.35 1028 10 16 0.00 0.00
6:53 am 06:53 Clear 37 2.8 23 -5 57 57 NW 6 9 30.36 1028 10 16 0.00 0.00
7:53 am 07:53 Sunny 37 2.8 23 -5 57 57 Calm 30.38 1029 10 16 0.00 0.00
8:53 am 08:53 Sunny 43 6.1 24 -4.4 47 47 N 7 11 30.39 1029 10 16 0.00 0.00
9:53 am 09:53 Sunny 47 8.3 22 -5.6 37 37 NNW 9 15 30.40 1029 10 16 0.00 0.00
10:53 am 10:53 Sunny 52 11.1 21 -6.1 30 30 NNW 10 17 30.40 1029 10 16 0.00 0.00
11:53 am 11:53 Sunny 55 12.8 22 -5.6 28 28 N 9 15 30.38 1029 10 16 0.00 0.00
12:53 pm 12:53 Sunny 58 14.4 23 -5 26 26 NNW 8 13 30.35 1028 10 16 0.00 0.00
1:53 pm 13:53 Sunny 60 15.6 22 -5.6 23 23 VRB 5 7 30.33 1027 10 16 0.00 0.00
2:53 pm 14:53 Sunny 61 16.1 22 -5.6 22 22 VRB 7 11 30.32 1027 10 16 0.00 0.00
3:53 pm 15:53 Sunny 61 16.1 22 -5.6 22 22 NW 7 11 30.32 1027 10 16 0.00 0.00
4:53 pm 16:53 Sunny 59 15 24 -4.4 26 26 NW 6 9 30.32 1027 10 16 0.00 0.00
5:53 pm 17:53 Clear 53 11.7 25 -3.9 34 34 Calm 30.33 1027 10 16 0.00 0.00
6:53 pm 18:53 Clear 50 10 26 -3.3 39 39 Calm 30.34 1027 10 16 0.00 0.00
7:53 pm 19:53 Clear 43 6.1 28 -2.2 56 56 NE 3 6 30.37 1028 10 16 0.00 0.00
8:53 pm 20:53 Clear 42 5.6 29 -1.7 60 60 Calm 30.37 1029 10 16 0.00 0.00
9:53 pm 21:53 Clear 39 3.9 30 -1.1 70 70 Calm 30.40 1029 10 16 0.00 0.00
10:53 pm 22:53 Clear 37 2.8 31 -0.6 79 79 Calm 30.40 1030 10 16 0.00 0.00
11:53 pm 23:53 Clear 35 1.7 31 -0.6 85 85 Calm 30.40 1029 10 16 0.00 0.00

Powered by AerisWeather